Regional Weather Roundup
Issued by NWS

Home | Current Version | Previous Version | Text Only | Print | Product List | Glossary Off
Versions: 1 2 3 4 5 6 7 8 9 10 11 12 13 14 15 16 17 18 19 20 21 22 23 24 25 26 27 28 29 30 31 32 33 34 35 36 37 38 39 40 41 42 43 44 45 46 47 48 49 50

000
ASUS43 KLSX 312259
RWRMO

WEATHER SUMMARY FOR MISSOURI
NATIONAL WEATHER SERVICE SPRINGFIELD MO
500 PM CST SAT JAN 31 2015

NOTE: "FAIR" INDICATES FEW OR NO CLOUDS BELOW 12,000 FEET WITH NO
       SIGNIFICANT WEATHER AND/OR OBSTRUCTIONS TO VISIBILITY.
       CURRENT SKY AND/OR WEATHER CONDITIONS ARE NOT AVAILABLE FOR
       CHILLICOTHE AND FARMINGTON.

MOZ001>031-035>038-043-044-053-054-010000-
...NORTHERN AND WESTERN MISSOURI...

CITY           SKY/WX    TMP DP  RH WIND       PRES   REMARKS
KANSAS CTY INT LGT RAIN  35  35 100 SE9       30.01F FOG     WCI  28
KANSAS C DTWN  LGT RAIN  38  35  89 S7        30.02F
LEE`S SUMMIT   LGT RAIN  36  34  92 SE7       30.02F FOG
ST JOSEPH      LGT RAIN  36  34  92 SE9       30.02F FOG     WCI  29
CHILLICOTHE      N/A     34  32  92 E7        30.08F WCI  28
KIRKSVILLE     LGT RAIN  35  35 100 S7        30.11F FOG     WCI  29

$$
MOZ066>068-077>081-088>096-101>105-010000-
...SOUTHWEST MISSOURI...

CITY           SKY/WX    TMP DP  RH WIND       PRES   REMARKS
SPRINGFIELD    CLOUDY    44  23  43 SE14      30.04F
JOPLIN         CLOUDY    46  28  49 S7        30.03F

$$
MOZ032>034-039>042-045>050-055>058-069>072-010000-
...CENTRAL MISSOURI...

CITY           SKY/WX    TMP DP  RH WIND       PRES   REMARKS
COLUMBIA       CLOUDY    36  36 100 E12       30.10F WCI  28
JEFFERSON CITY CLOUDY    37  35  92 E12       30.13F WCI  29
ROLLA          CLOUDY    38  28  67 E10       30.10F
SEDALIA        LGT RAIN  39  35  86 E12       30.07F
OSAGE BEACH    CLOUDY    39  30  70 E3        30.09F

$$
MOZ051-052-059>065-010000-
...EAST CENTRAL MISSOURI...

CITY           SKY/WX    TMP DP  RH WIND       PRES   REMARKS
ST LOUIS INTL  CLOUDY    46  25  43 CALM      30.20F
SPIRIT OF STL  LGT RAIN  43  30  60 CALM      30.18F
ST CHARLES     CLOUDY    39  33  79 NE5       30.19F

$$
MOZ072>076-082>087-097>100-106>115-010000-
...SOUTH CENTRAL AND SOUTHEAST MISSOURI...

CITY           SKY/WX    TMP DP  RH WIND       PRES   REMARKS
CAPE GIRARDEAU CLOUDY    41  33  73 CALM      30.24F
FARMINGTON     CLOUDY    39  25  56 E7        30.19F
POPLAR BLUFF   CLOUDY    41  30  65 E6        30.20F
WEST PLAINS    CLOUDY    44  20  38 SE8       30.12F

$$


USA.gov is the U.S. government's official web portal to all federal, state and local government web resources and services.